Location: *
(34.6903°N, 135.5184°E)
Time: 20:04:57
(UTC+00:00)

Cosmos 1346 Rocket - Pass Details

Date: 22 September 2019
Orbit: 520 x 559 km, 81.2° (Epoch: 21 October)

Event Time Altitude Azimuth Distance (km) Brightness Sun altitude
Rises 19:14:30 0° 344° (NNW) 2,750 6.4 -19.4°
Reaches altitude 10° 19:16:44 10° 339° (NNW) 1,850 5.4 -19.0°
Maximum altitude 19:20:39 47° 266° (W) 745 3.0 -18.2°
Enters shadow 19:23:12 20° 199° (SSW) 1,325 4.4 -17.7°
Exits shadow 19:25:34 - 188° (S) 2,235 5.7 -17.2°
Sets 19:26:44 0° 186° (S) 2,709 6.2 -17.0°
